Regional Weather Roundup
Issued by NWS Jackson, KY

Home | Current Version | Previous Version | Text Only | Print | Product List | Glossary On
Versions: 1 2 3 4 5 6 7 8 9 10 11 12 13 14 15 16 17 18 19 20 21 22 23 24 25 26 27
000
ASUS43 KJKL 311810
RWRJKL

EAST KENTUCKY HOURLY WEATHER ROUNDUP
NATIONAL WEATHER SERVICE JACKSON KY
200 PM EDT TUE MAY 31 2016

NOTE: "FAIR" INDICATES FEW OR NO CLOUDS BELOW 12,000 FEET WITH
NO SIGNIFICANT WEATHER AND/OR OBSTRUCTIONS TO VISIBILITY.

* THESE REPORTS ARE NOT UNDER NWS QUALITY CONTROL AND MAY NOT
  REPORT WEATHER SUCH AS PRECIPITATION AND FOG.

KYZ079-080-083-085-087-088-110-112-115-119-120-311900
...EASTERN KENTUCKY...

CITY           SKY/WX    TMP DP  RH WIND       PRES   REMARKS
JACKSON        SUNNY     83  61  47 CALM      30.02F
6HR MIN TEMP:  67; 6HR MAX TEMP:  83;

LONDON         MOSUNNY   83  61  47 N6        30.00F
6HR MIN TEMP:  64; 6HR MAX TEMP:  83;

SOMERSET*      CLOUDY    82  59  44 E6        30.01S
MONTICELLO*    CLOUDY    82  64  54 N6        30.01F
6HR MIN TEMP:  64; 6HR MAX TEMP:  84;

WILLIAMSBURG*  CLEAR     82  61  47 NW3       30.00S
MIDDLESBORO*   PTSUNNY   83  65  54 CALM      29.99F
6HR MIN TEMP:  60; 6HR MAX TEMP:  83;

HARLAN APT*    MOCLDY    82  59  44 CALM      30.01S
HAZARD APT*    MOCLDY    84  61  45 CALM      30.01F
BLACK MTN*       N/A     75  59  57 CALM        N/A
PIKE CO APT*     N/A     82  62  51 N7        30.02F
BIG SANDY APT* CLEAR     84  64  51 NE7       30.01F
6HR MIN TEMP:  66; 6HR MAX TEMP:  84;

MOREHEAD APT*  CLEAR     82  55  39 E7        30.03F
ASHLAND*       MOSUNNY   84  61  45 SE3       29.97F
$$

KYZ035-036-041-042-044-050-067-078-099-311900
...CENTRAL KENTUCKY...

CITY           SKY/WX    TMP DP  RH WIND       PRES   REMARKS
MT STERLING*   MOSUNNY   82  59  44 SE6       30.03S
FLEMING/MASON* MOSUNNY  N/A N/A N/A SE3       30.02F
DANVILLE*      CLOUDY    81  61  50 E7        30.02F
RICHMOND*      CLOUDY    82  61  47 CALM      30.00F
LEXINGTON      CLOUDY    84  59  42 E9        30.01F
6HR MIN TEMP:  66; 6HR MAX TEMP:  85;

FRANKFORT      MOSUNNY   86  58  38 E7        29.99F
6HR MIN TEMP:  65; 6HR MAX TEMP:  87;

LOUISVILLE     CLOUDY    86  60  41 VRB3      29.98F
6HR MIN TEMP:  72; 6HR MAX TEMP:  86;

LEBANON*         N/A     82  59  44 E5        30.01S
GLASGOW*       CLOUDY    83  60  44 SE3       29.99F
BOWLING GREEN  CLOUDY    84  64  50 NE5       29.98F
6HR MIN TEMP:  67; 6HR MAX TEMP:  85;

$$

KYZ091>093-OHZ055-061-077-WVZ005-015-034-035-042-311900
...SOUTHERN OHIO/WEST VIRGINIA...

CITY           SKY/WX    TMP DP  RH WIND       PRES   REMARKS
COVINGTON      CLOUDY    84  60  44 NW7       29.99F
COLUMBUS       PTSUNNY   85  55  35 CALM      29.98F
DAYTON         PTSUNNY   87  52  29 VRB5      30.00F
WILMINGTON     PTSUNNY   84  56  38 CALM      30.00F
HUNTINGTON       N/A     85  59  41 VRB5      29.99F
CHARLESTON       N/A     87  53  31 E10       29.99F
PINEVILLE*       N/A     85  51  30 MISG      30.06F
BECKLEY          N/A     78  55  44 CALM      30.06F
BLUEFIELD        N/A     75  57  53 E8        30.08F
LOGAN CO APT*    N/A     84  57  39 CALM      30.01F
$$

VAZ002-007-008-TNZ017-027-036-066-071-311900
...SOUTHWEST VIRGINIA/EAST TENNESSEE...

CITY           SKY/WX    TMP DP  RH WIND       PRES   REMARKS
WISE*            N/A     79  52  38 N5        30.08F
JONESVILLE*      N/A     84  59  42 CALM      30.01
ABINGDON*        N/A     83  58  42 CALM      30.02F
BRISTOL        PTSUNNY   86  59  39 CALM      29.99F
SEVIERVILLE*     N/A     84  61  45 VRB5      29.96F
KNOXVILLE      PTSUNNY   85  64  49 NE6       29.97F
OAK RIDGE      MOSUNNY   86  61  42 VRB5      29.98F
CROSSVILLE     SUNNY     83  58  42 VRB3      30.03F
NASHVILLE      PTSUNNY   87  59  38 VRB3      29.97F
$$

...KEY TO REMARKS...
VSB - VISIBILITY IN MILES
WCI - WIND CHILL INDEX
HX  - HEAT INDEX

$$




USA.gov is the U.S. government's official web portal to all federal, state and local government web resources and services.